Home   Weather   Springfield   Past weeks

Flag for USA Past Weather in Springfield, Massachusetts, USA — Yesterday and Last 2 Weeks

35 °F


Feels Like: 31 °F
Forecast: 36 / 49 °F
Wind: 5 mph from Southwest

Location: Barnes Municipal Airport

Current Time: Oct 25, 2016 at 6:28:42 AM

Latest Report: Oct 25, 2016 at 5:53 AM

Visibility: 10 mi

Pressure: 30.10 "Hg

Humidity: 72%

Dew Point: 27 °F

Location of SpringfieldLocation

Past Weather in Springfield — Graph


Springfield Temperature Yesterday

Maximum temperature yesterday: 57 °F (at 11:53 AM)
Minimum temperature yesterday: 34 °F (at 11:53 PM)
Average temperature yesterday: 47 °F

High & Low Weather Summary for the Past Weeks

High83 °F (Oct 18, 2:53 PM)100% (Oct 11, 2:53 AM)30.50 "Hg (Oct 11, 2:53 AM)
Low29 °F (Oct 11, 6:53 AM)22% (Oct 23, 2:53 PM)29.29 "Hg (Oct 22, 1:53 PM)
Average54 °F75%30.02 "Hg
* Reported Oct 10 4:53 AM — Oct 25 4:53 AM, Springfield, Weather by CustomWeather, © 2016

Note: Actual official high and low records may vary slightly from our data, if they occured in-between our weather recording intervals... More about our weather records


Springfield Weather History for the Previous 24 Hours

Scroll right to see more
Time TempWeatherWind HumidityBarometerVisibility
4:53 AM
Tue, Oct 25
34 °FClear.No wind82%30.08 "Hg10 mi
3:53 AM32 °FClear.No wind92%30.07 "Hg10 mi
2:53 AM34 °FPassing clouds.No wind92%30.06 "Hg10 mi
1:53 AM34 °FPassing clouds.5 mph88%30.06 "Hg10 mi
12:53 AM34 °FPassing clouds.3 mph85%30.06 "Hg10 mi
11:53 PM
Mon, Oct 24
34 °FPassing clouds.5 mph82%30.05 "Hg10 mi
10:53 PM38 °FClear.No wind70%30.05 "Hg10 mi
9:53 PM43 °FClear.3 mph58%30.05 "Hg10 mi
8:53 PM45 °FClear.10 mph53%30.03 "Hg10 mi
7:53 PM45 °FClear.14 mph53%30.02 "Hg10 mi
6:53 PM48 °FPassing clouds.16 mph46%29.98 "Hg10 mi
5:53 PM49 °FOvercast.10 mph43%29.96 "Hg10 mi
4:53 PM52 °FScattered clouds.20 mph40%29.93 "Hg10 mi
3:53 PM54 °FOvercast.18 mph38%29.90 "Hg10 mi
2:53 PM54 °FOvercast.23 mph43%29.89 "Hg10 mi
1:53 PM54 °FPartly sunny.21 mph41%29.88 "Hg10 mi
12:53 PM55 °FScattered clouds.21 mph44%29.87 "Hg10 mi
11:53 AM57 °FPartly sunny.15 mph44%29.85 "Hg10 mi
10:53 AM54 °FOvercast.14 mph51%29.85 "Hg10 mi
9:53 AM53 °FPartly sunny.5 mph61%29.84 "Hg10 mi
8:53 AM51 °FSunny.5 mph71%29.84 "Hg10 mi
7:53 AM44 °FSunny.No wind89%29.82 "Hg10 mi
6:53 AM44 °FPassing clouds.No wind89%29.81 "Hg10 mi
Weather by CustomWeather, © 2016

See weather overviewHow to use our weather pages